Private Wetterstation Wechselburg
Wetterdaten: Dienstag, 07.04.2015
Datum Zeit Temp. +2m Bodentemp. Temp.+5cm Temp. Wind Windchill X Diff Temp. Feuchte +2m Feuchte +5cm Sonnenschein Luftdruck Regen Wind Richtung Richtung Sonnenschein UV Taupunkt Windchill Windben
07.04.2015 00:00 0,3 C 17,4 C -0,3 C -0,6 C -2,4 C 0,0 C 78 % 82 % 0 % 1034,1 hPa 0,0 l/m 0,0 km/h (0 Bft) W 270 0 min 0,0 UV-I -3,1 C -2,4 C 0,0 km/h (0 Bft)
07.04.2015 00:05 0,1 C 17,4 C -0,5 C -0,8 C -2,5 C 0,0 C 78 % 82 % 0 % 1034,1 hPa 0,0 l/m 0,0 km/h (0 Bft) W 270 0 min 0,0 UV-I -3,3 C -2,5 C 0,0 km/h (0 Bft)
07.04.2015 00:10 0,0 C 17,4 C -0,6 C -0,8 C -2,5 C 0,0 C 79 % 83 % 0 % 1034,1 hPa 0,0 l/m 0,0 km/h (0 Bft) W 270 0 min 0,0 UV-I -3,2 C -2,5 C 0,0 km/h (0 Bft)
07.04.2015 00:15 -0,1 C 17,5 C -0,7 C -1,0 C -2,7 C 0,0 C 79 % 83 % 0 % 1034,1 hPa 0,0 l/m 0,0 km/h (0 Bft) W 270 0 min 0,0 UV-I -3,3 C -2,7 C 0,0 km/h (0 Bft)
07.04.2015 00:20 -0,1 C 17,4 C -0,7 C -1,0 C -2,8 C 0,0 C 79 % 83 % 0 % 1034,1 hPa 0,0 l/m 0,0 km/h (0 Bft) W 270 0 min 0,0 UV-I -3,3 C -2,8 C 0,0 km/h (0 Bft)
07.04.2015 00:25 -0,4 C 17,4 C -0,8 C -1,2 C -2,8 C 0,0 C 79 % 83 % 0 % 1034,1 hPa 0,0 l/m 0,0 km/h (0 Bft) W 270 0 min 0,0 UV-I -3,6 C -2,8 C 0,0 km/h (0 Bft)
07.04.2015 00:30 -0,5 C 17,4 C -0,9 C -1,3 C -2,8 C 0,0 C 80 % 83 % 0 % 1034,1 hPa 0,0 l/m 0,0 km/h (0 Bft) W 270 0 min 0,0 UV-I -3,5 C -2,8 C 0,0 km/h (0 Bft)
07.04.2015 00:35 -0,5 C 17,4 C -0,9 C -1,3 C -2,9 C 0,0 C 80 % 84 % 0 % 1034,1 hPa 0,0 l/m 0,0 km/h (0 Bft) W 270 0 min 0,0 UV-I -3,5 C -2,9 C 0,0 km/h (0 Bft)
07.04.2015 00:42 -0,8 C 17,4 C -0,9 C -1,6 C -3,2 C 0,0 C 80 % 84 % 0 % 1034,1 hPa 0,0 l/m 0,0 km/h (0 Bft) N 0 0 min 0,0 UV-I -3,8 C -3,2 C 0,0 km/h (0 Bft)
07.04.2015 00:50 -0,9 C 17,4 C -1,2 C -1,7 C -3,4 C 0,0 C 80 % 84 % 0 % 1034,1 hPa 0,0 l/m 0,0 km/h (0 Bft) W 270 0 min 0,0 UV-I -3,9 C -3,4 C 0,0 km/h (0 Bft)
07.04.2015 00:55 -1,2 C 17,5 C -1,3 C -2,0 C -3,5 C 0,0 C 80 % 84 % 0 % 1034,9 hPa 0,0 l/m 0,0 km/h (0 Bft) W 270 0 min 0,0 UV-I -4,2 C -3,5 C 0,0 km/h (0 Bft)
07.04.2015 01:00 -1,3 C 17,5 C -1,3 C -2,0 C -3,4 C 0,0 C 81 % 85 % 0 % 1034,9 hPa 0,0 l/m 0,0 km/h (0 Bft) W 270 0 min 0,0 UV-I -4,1 C -3,4 C 0,0 km/h (0 Bft)
07.04.2015 01:05 -1,3 C 17,4 C -1,3 C -2,0 C -3,4 C 0,0 C 81 % 85 % 0 % 1034,9 hPa 0,0 l/m 0,0 km/h (0 Bft) W 270 0 min 0,0 UV-I -4,1 C -3,4 C 0,0 km/h (0 Bft)
07.04.2015 01:10 -1,5 C 17,4 C -1,5 C -2,1 C -3,4 C 0,0 C 81 % 85 % 0 % 1034,9 hPa 0,0 l/m 0,0 km/h (0 Bft) W 270 0 min 0,0 UV-I -4,3 C -3,4 C 0,0 km/h (0 Bft)
07.04.2015 01:15 -1,5 C 17,4 C -1,5 C -2,2 C -3,5 C 0,0 C 81 % 85 % 0 % 1034,9 hPa 0,0 l/m 0,0 km/h (0 Bft) W 270 0 min 0,0 UV-I -4,3 C -3,5 C 0,0 km/h (0 Bft)
07.04.2015 01:20 -1,7 C 17,4 C -1,5 C -2,3 C -3,6 C 0,0 C 81 % 85 % 0 % 1034,9 hPa 0,0 l/m 0,0 km/h (0 Bft) W 270 0 min 0,0 UV-I -4,5 C -3,6 C 0,0 km/h (0 Bft)
07.04.2015 01:25 -1,9 C 17,4 C -1,6 C -2,5 C -3,7 C 0,0 C 81 % 85 % 0 % 1034,9 hPa 0,0 l/m 0,0 km/h (0 Bft) W 270 0 min 0,0 UV-I -4,7 C -3,7 C 0,0 km/h (0 Bft)
07.04.2015 01:30 -1,9 C 17,4 C -1,6 C -2,5 C -3,7 C 0,0 C 82 % 85 % 0 % 1034,9 hPa 0,0 l/m 0,0 km/h (0 Bft) W 270 0 min 0,0 UV-I -4,6 C -3,7 C 0,0 km/h (0 Bft)
07.04.2015 01:35 -2,1 C 17,4 C -1,7 C -2,6 C -3,7 C 0,0 C 82 % 85 % 0 % 1034,9 hPa 0,0 l/m 0,0 km/h (0 Bft) W 270 0 min 0,0 UV-I -4,7 C -3,7 C 0,0 km/h (0 Bft)
07.04.2015 01:40 -2,1 C 17,4 C -1,8 C -2,7 C -3,8 C 0,0 C 82 % 85 % 0 % 1034,9 hPa 0,0 l/m 0,0 km/h (0 Bft) W 270 0 min 0,0 UV-I -4,7 C -3,8 C 0,0 km/h (0 Bft)
07.04.2015 01:45 -2,3 C 17,4 C -1,7 C -2,8 C -3,8 C 0,0 C 82 % 86 % 0 % 1034,9 hPa 0,0 l/m 0,0 km/h (0 Bft) W 270 0 min 0,0 UV-I -4,9 C -3,8 C 0,0 km/h (0 Bft)
07.04.2015 01:50 -2,4 C 17,4 C -1,9 C -2,8 C -3,7 C 0,0 C 82 % 85 % 0 % 1034,9 hPa 0,0 l/m 0,0 km/h (0 Bft) O-NO 67 0 min 0,0 UV-I -5,0 C -3,7 C 0,0 km/h (0 Bft)
07.04.2015 01:55 -2,5 C 17,4 C -2,1 C -2,9 C -3,6 C 0,0 C 82 % 86 % 0 % 1035,0 hPa 0,0 l/m 0,0 km/h (0 Bft) O-NO 67 0 min 0,0 UV-I -5,1 C -3,6 C 0,0 km/h (0 Bft)
07.04.2015 02:00 -2,5 C 17,4 C -2,1 C -2,9 C -3,6 C 0,0 C 82 % 86 % 0 % 1035,0 hPa 0,0 l/m 0,0 km/h (0 Bft) O-NO 67 0 min 0,0 UV-I -5,1 C -3,6 C 0,0 km/h (0 Bft)
07.04.2015 02:05 -2,5 C 17,4 C -2,1 C -2,9 C -3,6 C 0,0 C 83 % 86 % 0 % 1035,0 hPa 0,0 l/m 0,0 km/h (0 Bft) O-NO 67 0 min 0,0 UV-I -5,0 C -3,6 C 0,0 km/h (0 Bft)
07.04.2015 02:10 -2,7 C 17,3 C -2,1 C -3,0 C -3,6 C 0,0 C 83 % 86 % 0 % 1035,0 hPa 0,0 l/m 0,0 km/h (0 Bft) O-NO 67 0 min 0,0 UV-I -5,2 C -3,6 C 0,0 km/h (0 Bft)
07.04.2015 02:15 -2,7 C 17,3 C -2,1 C -3,1 C -3,9 C 0,0 C 83 % 86 % 0 % 1035,0 hPa 0,0 l/m 0,0 km/h (0 Bft) O-NO 67 0 min 0,0 UV-I -5,2 C -3,9 C 0,0 km/h (0 Bft)
07.04.2015 02:20 -2,9 C 17,3 C -2,1 C -3,3 C -4,1 C 0,0 C 83 % 86 % 0 % 1035,0 hPa 0,0 l/m 0,0 km/h (0 Bft) O-NO 67 0 min 0,0 UV-I -5,4 C -4,1 C 0,0 km/h (0 Bft)
07.04.2015 02:25 -2,9 C 17,3 C -2,1 C -3,3 C -4,1 C 0,0 C 83 % 87 % 0 % 1035,0 hPa 0,0 l/m 0,0 km/h (0 Bft) O-NO 67 0 min 0,0 UV-I -5,4 C -4,1 C 0,0 km/h (0 Bft)
07.04.2015 02:30 -2,9 C 17,2 C -2,3 C -3,3 C -4,1 C 0,0 C 83 % 87 % 0 % 1035,0 hPa 0,0 l/m 0,0 km/h (0 Bft) O-NO 67 0 min 0,0 UV-I -5,4 C -4,1 C 0,0 km/h (0 Bft)
07.04.2015 02:35 -3,1 C 17,1 C -2,3 C -3,5 C -4,2 C 0,0 C 83 % 87 % 0 % 1035,6 hPa 0,0 l/m 0,0 km/h (0 Bft) O-NO 67 0 min 0,0 UV-I -5,6 C -4,2 C 0,0 km/h (0 Bft)
07.04.2015 02:40 -3,2 C 17,2 C -2,3 C -3,6 C -4,3 C 0,0 C 83 % 87 % 0 % 1035,6 hPa 0,0 l/m 0,0 km/h (0 Bft) O-NO 67 0 min 0,0 UV-I -5,7 C -4,3 C 0,0 km/h (0 Bft)
07.04.2015 02:45 -3,3 C 17,2 C -2,3 C -3,6 C -4,1 C 0,0 C 83 % 87 % 0 % 1035,6 hPa 0,0 l/m 0,0 km/h (0 Bft) W-SW 247 0 min 0,0 UV-I -5,8 C -4,1 C 0,0 km/h (0 Bft)
07.04.2015 02:50 -3,3 C 17,2 C -2,3 C -3,6 C -4,2 C 0,0 C 84 % 87 % 0 % 1035,6 hPa 0,0 l/m 0,0 km/h (0 Bft) W-SW 247 0 min 0,0 UV-I -5,6 C -4,2 C 0,0 km/h (0 Bft)
07.04.2015 02:55 -3,4 C 17,2 C -2,5 C -3,7 C -4,2 C 0,0 C 84 % 87 % 0 % 1035,6 hPa 0,0 l/m 0,0 km/h (0 Bft) W-SW 247 0 min 0,0 UV-I -5,7 C -4,2 C 0,0 km/h (0 Bft)
07.04.2015 03:00 -3,3 C 17,2 C -2,5 C -3,6 C -4,1 C 0,0 C 84 % 87 % 0 % 1035,6 hPa 0,0 l/m 0,0 km/h (0 Bft) W-SW 247 0 min 0,0 UV-I -5,6 C -4,1 C 0,0 km/h (0 Bft)
07.04.2015 03:05 -3,5 C 17,2 C -2,5 C -3,7 C -4,1 C 0,0 C 84 % 87 % 0 % 1035,6 hPa 0,0 l/m 0,0 km/h (0 Bft) W-SW 247 0 min 0,0 UV-I -5,8 C -4,1 C 0,0 km/h (0 Bft)
07.04.2015 03:10 -3,5 C 17,2 C -2,5 C -3,8 C -4,3 C 0,0 C 84 % 87 % 0 % 1035,6 hPa 0,0 l/m 0,0 km/h (0 Bft) W-SW 247 0 min 0,0 UV-I -5,8 C -4,3 C 0,0 km/h (0 Bft)
07.04.2015 03:15 -3,5 C 17,2 C -2,5 C -3,7 C -4,2 C 0,0 C 84 % 87 % 0 % 1035,4 hPa 0,0 l/m 0,0 km/h (0 Bft) W-SW 247 0 min 0,0 UV-I -5,8 C -4,2 C 0,0 km/h (0 Bft)
07.04.2015 03:20 -3,5 C 17,2 C -2,7 C -3,7 C -4,1 C 0,0 C 84 % 87 % 0 % 1035,4 hPa 0,0 l/m 0,0 km/h (0 Bft) W-SW 247 0 min 0,0 UV-I -5,8 C -4,1 C 0,0 km/h (0 Bft)
07.04.2015 03:25 -3,5 C 17,2 C -2,7 C -3,7 C -4,0 C 0,0 C 84 % 87 % 0 % 1035,4 hPa 0,0 l/m 0,0 km/h (0 Bft) O-NO 67 0 min 0,1 UV-I -5,8 C -4,0 C 0,0 km/h (0 Bft)
07.04.2015 03:30 -3,5 C 17,2 C -2,7 C -3,6 C -3,9 C 0,0 C 84 % 87 % 0 % 1035,4 hPa 0,0 l/m 0,0 km/h (0 Bft) O-NO 67 0 min 0,1 UV-I -5,8 C -3,9 C 0,0 km/h (0 Bft)
07.04.2015 03:35 -3,6 C 17,1 C -2,7 C -3,8 C -4,1 C 0,0 C 84 % 87 % 0 % 1035,4 hPa 0,0 l/m 0,0 km/h (0 Bft) W 270 0 min 0,1 UV-I -5,9 C -4,1 C 0,0 km/h (0 Bft)
07.04.2015 03:42 -3,6 C 17,1 C -2,7 C -3,8 C -4,2 C 0,0 C 85 % 88 % 0 % 1035,4 hPa 0,0 l/m 0,0 km/h (0 Bft) N 0 0 min 0,0 UV-I -5,7 C -4,2 C 0,0 km/h (0 Bft)
07.04.2015 03:50 -3,7 C 17,1 C -2,7 C -4,0 C -4,6 C 0,0 C 84 % 88 % 0 % 1035,4 hPa 0,0 l/m 0,0 km/h (0 Bft) W 270 0 min 0,0 UV-I -6,0 C -4,6 C 0,0 km/h (0 Bft)
07.04.2015 03:55 -3,9 C 17,1 C -2,9 C -4,1 C -4,6 C 0,0 C 85 % 88 % 0 % 1035,4 hPa 0,0 l/m 0,0 km/h (0 Bft) O-NO 67 0 min 0,0 UV-I -6,0 C -4,6 C 0,0 km/h (0 Bft)
07.04.2015 04:00 -3,9 C 17,1 C -2,9 C -4,1 C -4,6 C 0,0 C 85 % 88 % 0 % 1035,4 hPa 0,0 l/m 0,0 km/h (0 Bft) N-NW 337 0 min 0,0 UV-I -6,0 C -4,6 C 0,0 km/h (0 Bft)
07.04.2015 04:05 -3,9 C 17,0 C -2,9 C -4,2 C -4,7 C 0,0 C 85 % 88 % 0 % 1035,4 hPa 0,0 l/m 0,0 km/h (0 Bft) S-SW 202 0 min 0,0 UV-I -6,0 C -4,7 C 0,0 km/h (0 Bft)
07.04.2015 04:10 -3,9 C 17,0 C -2,9 C -4,2 C -4,7 C 0,0 C 85 % 88 % 0 % 1035,4 hPa 0,0 l/m 0,0 km/h (0 Bft) S-SW 202 0 min 0,0 UV-I -6,0 C -4,7 C 0,0 km/h (0 Bft)
07.04.2015 04:15 -3,9 C 17,0 C -3,0 C -4,1 C -4,6 C 0,0 C 85 % 88 % 0 % 1035,2 hPa 0,0 l/m 0,0 km/h (0 Bft) S 180 0 min 0,0 UV-I -6,0 C -4,6 C 0,0 km/h (0 Bft)
07.04.2015 04:20 -4,0 C 17,0 C -2,9 C -4,2 C -4,6 C 0,0 C 85 % 88 % 0 % 1035,2 hPa 0,0 l/m 0,0 km/h (0 Bft) SO 135 0 min 0,0 UV-I -6,1 C -4,6 C 0,0 km/h (0 Bft)
07.04.2015 04:25 -4,1 C 17,0 C -3,1 C -4,2 C -4,5 C 0,0 C 85 % 88 % 0 % 1035,2 hPa 0,0 l/m 0,0 km/h (0 Bft) O-SO 112 0 min 0,0 UV-I -6,2 C -4,5 C 0,0 km/h (0 Bft)
07.04.2015 04:30 -4,1 C 17,0 C -3,1 C -4,3 C -4,6 C 0,0 C 85 % 88 % 0 % 1035,2 hPa 0,0 l/m 0,0 km/h (0 Bft) O-SO 112 0 min 0,0 UV-I -6,2 C -4,6 C 0,0 km/h (0 Bft)
07.04.2015 04:35 -3,9 C 17,0 C -3,2 C -4,1 C -4,6 C 0,0 C 85 % 88 % 0 % 1035,2 hPa 0,0 l/m 0,0 km/h (0 Bft) O-SO 112 0 min 0,0 UV-I -6,0 C -4,6 C 0,0 km/h (0 Bft)
07.04.2015 04:40 -4,0 C 17,0 C -3,1 C -4,2 C -4,6 C 0,0 C 86 % 88 % 0 % 1035,2 hPa 0,0 l/m 0,0 km/h (0 Bft) O-NO 67 0 min 0,0 UV-I -6,0 C -4,6 C 0,0 km/h (0 Bft)
07.04.2015 04:45 -4,1 C 17,0 C -3,3 C -4,3 C -4,6 C 0,0 C 86 % 88 % 0 % 1035,2 hPa 0,0 l/m 0,0 km/h (0 Bft) O-NO 67 0 min 0,0 UV-I -6,1 C -4,6 C 0,0 km/h (0 Bft)
07.04.2015 04:50 -4,1 C 16,9 C -3,2 C -4,3 C -4,7 C 0,0 C 86 % 88 % 0 % 1035,2 hPa 0,0 l/m 0,0 km/h (0 Bft) W-SW 247 0 min 0,0 UV-I -6,1 C -4,7 C 0,0 km/h (0 Bft)
07.04.2015 04:55 -4,1 C 16,9 C -2,9 C -4,3 C -4,6 C 0,0 C 86 % 88 % 0 % 1035,2 hPa 0,0 l/m 0,0 km/h (0 Bft) S 180 0 min 0,0 UV-I -6,1 C -4,6 C 0,0 km/h (0 Bft)
07.04.2015 05:00 -4,1 C 17,0 C -3,1 C -4,3 C -4,6 C 0,0 C 86 % 88 % 0 % 1035,2 hPa 0,0 l/m 0,0 km/h (0 Bft) SW 225 0 min 0,0 UV-I -6,1 C -4,6 C 0,0 km/h (0 Bft)
07.04.2015 05:05 -4,2 C 16,9 C -3,1 C -4,4 C -4,7 C 0,0 C 86 % 88 % 0 % 1035,2 hPa 0,0 l/m 0,0 km/h (0 Bft) SW 225 0 min 0,0 UV-I -6,2 C -4,7 C 0,0 km/h (0 Bft)
07.04.2015 05:10 -4,1 C 16,9 C -3,3 C -4,3 C -4,7 C 0,0 C 86 % 88 % 0 % 1035,2 hPa 0,0 l/m 0,0 km/h (0 Bft) W-SW 247 0 min 0,0 UV-I -6,1 C -4,7 C 0,0 km/h (0 Bft)
07.04.2015 05:15 -4,3 C 16,9 C -3,3 C -4,5 C -4,9 C 0,0 C 85 % 88 % 0 % 1035,4 hPa 0,0 l/m 0,0 km/h (0 Bft) W-SW 247 0 min 0,0 UV-I -6,4 C -4,9 C 0,0 km/h (0 Bft)
07.04.2015 05:20 -4,3 C 16,9 C -3,3 C -4,5 C -4,8 C 0,0 C 85 % 88 % 0 % 1035,4 hPa 0,0 l/m 0,0 km/h (0 Bft) S-SO 157 0 min 0,0 UV-I -6,4 C -4,8 C 0,0 km/h (0 Bft)
07.04.2015 05:25 -4,3 C 16,9 C -3,3 C -4,5 C -4,8 C 0,0 C 85 % 88 % 0 % 1035,4 hPa 0,0 l/m 0,0 km/h (0 Bft) W-SW 247 0 min 0,0 UV-I -6,4 C -4,8 C 0,0 km/h (0 Bft)
07.04.2015 05:30 -4,3 C 16,8 C -3,3 C -4,5 C -4,9 C 0,0 C 85 % 88 % 0 % 1035,4 hPa 0,0 l/m 0,0 km/h (0 Bft) SW 225 0 min 0,0 UV-I -6,4 C -4,9 C 0,0 km/h (0 Bft)
07.04.2015 05:35 -4,3 C 16,8 C -3,3 C -4,5 C -4,8 C 0,0 C 86 % 88 % 0 % 1035,4 hPa 0,0 l/m 0,0 km/h (0 Bft) SW 225 0 min 0,0 UV-I -6,3 C -4,8 C 0,0 km/h (0 Bft)
07.04.2015 05:40 -4,1 C 16,8 C -3,3 C -4,4 C -4,9 C 0,0 C 86 % 88 % 0 % 1035,4 hPa 0,0 l/m 0,0 km/h (0 Bft) SW 225 0 min 0,0 UV-I -6,1 C -4,9 C 0,0 km/h (0 Bft)
07.04.2015 05:45 -4,3 C 16,8 C -3,3 C -4,5 C -4,9 C 0,0 C 86 % 88 % 0 % 1035,4 hPa 0,0 l/m 0,0 km/h (0 Bft) S 180 0 min 0,0 UV-I -6,3 C -4,9 C 0,0 km/h (0 Bft)
07.04.2015 05:50 -4,3 C 16,8 C -3,4 C -4,5 C -4,8 C 0,0 C 86 % 88 % 0 % 1035,4 hPa 0,0 l/m 0,0 km/h (0 Bft) NO 45 0 min 0,0 UV-I -6,3 C -4,8 C 0,0 km/h (0 Bft)
07.04.2015 05:55 -4,1 C 16,8 C -3,3 C -4,3 C -4,8 C 0,0 C 86 % 88 % 0 % 1035,4 hPa 0,0 l/m 0,0 km/h (0 Bft) O-NO 67 0 min 0,0 UV-I -6,1 C -4,8 C 0,0 km/h (0 Bft)
07.04.2015 06:00 -4,2 C 16,8 C -3,3 C -4,3 C -4,6 C 0,0 C 86 % 88 % 0 % 1035,4 hPa 0,0 l/m 0,0 km/h (0 Bft) W 270 0 min 0,0 UV-I -6,2 C -4,6 C 0,0 km/h (0 Bft)
07.04.2015 06:05 -4,1 C 16,8 C -3,3 C -4,3 C -4,6 C 0,0 C 87 % 88 % 0 % 1035,4 hPa 0,0 l/m 0,0 km/h (0 Bft) O-SO 112 0 min 0,0 UV-I -5,9 C -4,6 C 0,0 km/h (0 Bft)
07.04.2015 06:10 -4,1 C 16,8 C -3,3 C -4,2 C -4,5 C 0,0 C 86 % 88 % 0 % 1035,4 hPa 0,0 l/m 0,0 km/h (0 Bft) O-SO 112 0 min 0,0 UV-I -6,1 C -4,5 C 0,0 km/h (0 Bft)
07.04.2015 06:15 -4,1 C 16,8 C -3,5 C -4,2 C -4,4 C 0,0 C 87 % 88 % 0 % 1035,4 hPa 0,0 l/m 0,0 km/h (0 Bft) SO 135 0 min 0,0 UV-I -5,9 C -4,4 C 0,0 km/h (0 Bft)
07.04.2015 06:20 -4,1 C 16,7 C -3,3 C -4,2 C -4,4 C 0,0 C 86 % 88 % 0 % 1035,4 hPa 0,0 l/m 0,0 km/h (0 Bft) W-SW 247 0 min 0,0 UV-I -6,1 C -4,4 C 0,0 km/h (0 Bft)
07.04.2015 06:25 -4,1 C 16,7 C -3,3 C -4,3 C -4,6 C 0,0 C 86 % 88 % 0 % 1035,4 hPa 0,0 l/m 0,0 km/h (0 Bft) W-SW 247 0 min 0,0 UV-I -6,1 C -4,6 C 0,0 km/h (0 Bft)
07.04.2015 06:30 -4,1 C 16,7 C -3,3 C -4,3 C -4,6 C 0,0 C 86 % 88 % 0 % 1035,4 hPa 0,0 l/m 0,0 km/h (0 Bft) O-NO 67 0 min 0,0 UV-I -6,1 C -4,6 C 0,0 km/h (0 Bft)
07.04.2015 06:35 -4,1 C 16,7 C -3,4 C -4,2 C -4,5 C 0,0 C 86 % 88 % 0 % 1035,4 hPa 0,0 l/m 0,0 km/h (0 Bft) SO 135 0 min 0,0 UV-I -6,1 C -4,5 C 0,0 km/h (0 Bft)
07.04.2015 06:42 -4,1 C 16,7 C -3,3 C -4,2 C -4,5 C 0,0 C 86 % 88 % 0 % 1035,4 hPa 0,0 l/m 0,0 km/h (0 Bft) N 0 0 min 0,0 UV-I -6,1 C -4,5 C 0,0 km/h (0 Bft)
07.04.2015 06:50 -4,1 C 16,7 C -3,3 C -4,2 C -4,3 C 0,0 C 87 % 88 % 0 % 1035,4 hPa 0,0 l/m 0,0 km/h (0 Bft) SO 135 0 min 0,1 UV-I -5,9 C -4,3 C 0,0 km/h (0 Bft)
07.04.2015 06:55 -4,1 C 16,6 C -3,3 C -4,1 C -4,1 C 0,0 C 87 % 88 % 0 % 1035,9 hPa 0,0 l/m 0,0 km/h (0 Bft) O-NO 67 0 min 0,1 UV-I -5,9 C -4,1 C 0,0 km/h (0 Bft)
07.04.2015 07:00 -4,1 C 16,6 C -3,2 C -4,1 C -4,1 C 0,0 C 87 % 88 % 0 % 1035,9 hPa 0,0 l/m 0,0 km/h (0 Bft) O-NO 67 0 min 0,1 UV-I -5,9 C -4,1 C 0,0 km/h (0 Bft)
07.04.2015 07:05 -4,1 C 16,6 C -3,2 C -3,6 C -3,6 C 0,5 C 87 % 88 % 13 % 1035,9 hPa 0,0 l/m 0,0 km/h (0 Bft) O-NO 67 0 min 0,0 UV-I -5,9 C -3,6 C 0,0 km/h (0 Bft)
07.04.2015 07:10 -3,9 C 16,6 C -2,9 C -2,8 C -2,8 C 1,1 C 87 % 89 % 29 % 1035,9 hPa 0,0 l/m 0,0 km/h (0 Bft) O-NO 67 5 min 0,1 UV-I -5,7 C -2,8 C 0,0 km/h (0 Bft)
07.04.2015 07:15 -3,3 C 16,6 C -2,5 C -1,2 C -1,2 C 2,1 C 88 % 89 % 55 % 1036,4 hPa 0,0 l/m 0,0 km/h (0 Bft) O-NO 67 5 min 0,3 UV-I -5,0 C -1,2 C 0,0 km/h (0 Bft)
07.04.2015 07:20 -3,1 C 16,5 C -2,1 C -0,2 C -0,2 C 2,9 C 88 % 89 % 76 % 1036,4 hPa 0,0 l/m 0,0 km/h (0 Bft) O-NO 67 5 min 0,5 UV-I -4,8 C -0,2 C 0,0 km/h (0 Bft)
07.04.2015 07:25 -2,5 C 16,5 C -1,8 C 1,5 C 1,5 C 4,0 C 89 % 89 % 100 % 1036,4 hPa 0,0 l/m 0,0 km/h (0 Bft) SW 225 5 min 0,7 UV-I -4,1 C 1,5 C 0,0 km/h (0 Bft)
07.04.2015 07:30 -2,2 C 16,4 C -1,5 C 2,7 C 2,7 C 4,9 C 89 % 89 % 100 % 1036,4 hPa 0,0 l/m 0,0 km/h (0 Bft) W-SW 247 5 min 0,8 UV-I -3,8 C 2,7 C 0,0 km/h (0 Bft)
07.04.2015 07:35 -2,0 C 16,4 C -0,9 C 4,0 C 4,0 C 6,0 C 89 % 89 % 100 % 1036,4 hPa 0,0 l/m 0,0 km/h (0 Bft) S-SW 202 5 min 1,0 UV-I -3,6 C 4,0 C 0,0 km/h (0 Bft)
07.04.2015 07:40 -2,0 C 16,4 C -0,7 C 4,7 C 4,7 C 6,7 C 89 % 89 % 100 % 1036,4 hPa 0,0 l/m 0,0 km/h (0 Bft) SW 225 5 min 1,1 UV-I -3,6 C 4,7 C 1,9 km/h (1 Bft)
07.04.2015 07:45 -2,2 C 16,3 C -0,3 C 5,2 C 5,2 C 7,4 C 88 % 89 % 100 % 1036,4 hPa 0,0 l/m 0,3 km/h (0 Bft) SW 225 5 min 1,0 UV-I -3,9 C 5,2 C 2,3 km/h (1 Bft)
07.04.2015 07:50 -2,3 C 16,3 C 0,1 C 5,3 C 5,3 C 7,6 C 88 % 89 % 100 % 1036,4 hPa 0,0 l/m 0,8 km/h (0 Bft) SW 225 5 min 0,7 UV-I -4,0 C 5,3 C 0,0 km/h (0 Bft)
07.04.2015 07:55 -2,1 C 16,2 C 0,4 C 6,0 C 6,0 C 8,1 C 88 % 88 % 100 % 1036,4 hPa 0,0 l/m 0,6 km/h (0 Bft) SW 225 5 min 0,9 UV-I -3,8 C 6,0 C 1,8 km/h (1 Bft)
07.04.2015 08:00 -2,1 C 16,2 C 0,6 C 6,4 C 6,4 C 8,5 C 88 % 88 % 100 % 1036,4 hPa 0,0 l/m 0,5 km/h (0 Bft) SW 225 5 min 1,5 UV-I -3,8 C 6,4 C 0,0 km/h (0 Bft)
07.04.2015 08:05 -2,1 C 16,2 C 0,7 C 6,4 C 6,4 C 8,5 C 88 % 87 % 100 % 1036,4 hPa 0,0 l/m 1,1 km/h (1 Bft) S-SW 202 5 min 1,8 UV-I -3,8 C 6,4 C 2,7 km/h (1 Bft)
07.04.2015 08:10 -1,9 C 16,1 C 0,7 C 6,5 C 6,5 C 8,4 C 88 % 87 % 100 % 1036,4 hPa 0,0 l/m 1,1 km/h (1 Bft) S 180 5 min 1,6 UV-I -3,6 C 6,5 C 2,1 km/h (1 Bft)
07.04.2015 08:15 -1,7 C 16,2 C 0,5 C 7,3 C 7,3 C 9,0 C 88 % 87 % 100 % 1036,3 hPa 0,0 l/m 0,3 km/h (0 Bft) S-SO 157 5 min 2,1 UV-I -3,4 C 7,3 C 0,0 km/h (0 Bft)
07.04.2015 08:20 -1,6 C 16,1 C 0,7 C 7,5 C 7,5 C 9,1 C 88 % 87 % 100 % 1036,3 hPa 0,0 l/m 0,5 km/h (0 Bft) SW 225 5 min 3,0 UV-I -3,3 C 7,5 C 2,7 km/h (1 Bft)
07.04.2015 08:25 -1,3 C 16,1 C 0,8 C 7,6 C 7,6 C 8,9 C 88 % 86 % 100 % 1036,3 hPa 0,0 l/m 1,3 km/h (1 Bft) S-SW 202 5 min 1,6 UV-I -3,0 C 7,6 C 2,1 km/h (1 Bft)
07.04.2015 08:30 -1,3 C 16,1 C 0,9 C 8,0 C 8,0 C 9,3 C 88 % 86 % 100 % 1036,3 hPa 0,0 l/m 1,9 km/h (1 Bft) S-SO 157 5 min 0,4 UV-I -3,0 C 8,0 C 4,0 km/h (1 Bft)
07.04.2015 08:35 -0,9 C 16,1 C 1,1 C 8,6 C 8,6 C 9,5 C 87 % 86 % 100 % 1036,3 hPa 0,0 l/m 1,9 km/h (1 Bft) W-SW 247 5 min 0,2 UV-I -2,8 C 8,6 C 1,9 km/h (1 Bft)
07.04.2015 08:40 -0,8 C 16,1 C 1,2 C 9,0 C 9,0 C 9,8 C 87 % 86 % 100 % 1036,3 hPa 0,0 l/m 2,3 km/h (1 Bft) S-SW 202 5 min 0,2 UV-I -2,7 C 9,0 C 5,5 km/h (1 Bft)
07.04.2015 08:45 -0,5 C 16,0 C 1,2 C 8,6 C 8,6 C 9,1 C 86 % 86 % 100 % 1036,3 hPa 0,0 l/m 2,6 km/h (1 Bft) S-SW 202 5 min 0,0 UV-I -2,5 C 8,6 C 5,3 km/h (1 Bft)
07.04.2015 08:50 -0,3 C 16,1 C 1,3 C 7,5 C 7,5 C 7,8 C 86 % 86 % 100 % 1036,3 hPa 0,0 l/m 2,6 km/h (1 Bft) S-SW 202 5 min 0,0 UV-I -2,3 C 7,5 C 5,6 km/h (1 Bft)
07.04.2015 08:55 -0,1 C 16,1 C 1,5 C 8,0 C 8,0 C 8,1 C 86 % 86 % 100 % 1036,3 hPa 0,0 l/m 2,3 km/h (1 Bft) S-SW 202 5 min 0,0 UV-I -2,2 C 8,0 C 2,1 km/h (1 Bft)
07.04.2015 09:00 0,3 C 16,1 C 1,6 C 7,9 C 7,9 C 7,6 C 86 % 86 % 100 % 1036,3 hPa 0,0 l/m 2,3 km/h (1 Bft) S-SO 157 5 min 0,0 UV-I -1,8 C 7,9 C 3,1 km/h (1 Bft)
07.04.2015 09:05 0,4 C 16,0 C 1,8 C 7,8 C 7,8 C 7,4 C 85 % 85 % 100 % 1036,3 hPa 0,0 l/m 3,1 km/h (1 Bft) SW 225 5 min 0,0 UV-I -1,8 C 7,8 C 4,5 km/h (1 Bft)
07.04.2015 09:10 0,8 C 16,0 C 2,0 C 8,0 C 8,0 C 7,2 C 85 % 85 % 100 % 1036,3 hPa 0,0 l/m 3,5 km/h (1 Bft) S-SW 202 5 min 0,0 UV-I -1,4 C 8,0 C 7,4 km/h (2 Bft)
07.04.2015 09:15 1,3 C 15,9 C 2,4 C 8,8 C 8,8 C 7,5 C 84 % 85 % 100 % 1036,3 hPa 0,0 l/m 2,7 km/h (1 Bft) S-SW 202 5 min 0,0 UV-I -1,1 C 8,8 C 2,4 km/h (1 Bft)
07.04.2015 09:20 1,5 C 16,0 C 2,6 C 8,8 C 8,8 C 7,3 C 84 % 84 % 100 % 1036,3 hPa 0,0 l/m 2,3 km/h (1 Bft) S-SO 157 5 min 0,0 UV-I -0,9 C 8,8 C 1,6 km/h (1 Bft)
07.04.2015 09:25 1,9 C 16,0 C 2,8 C 8,9 C 8,9 C 7,0 C 83 % 84 % 100 % 1036,3 hPa 0,0 l/m 2,6 km/h (1 Bft) S 180 5 min 0,0 UV-I -0,7 C 8,9 C 0,0 km/h (0 Bft)
07.04.2015 09:30 2,1 C 16,0 C 3,1 C 9,0 C 9,0 C 6,9 C 82 % 84 % 100 % 1036,3 hPa 0,0 l/m 2,6 km/h (1 Bft) S 180 5 min 0,0 UV-I -0,6 C 9,0 C 6,6 km/h (2 Bft)
07.04.2015 09:35 2,7 C 16,0 C 3,5 C 8,6 C 8,6 C 5,9 C 80 % 83 % 100 % 1036,3 hPa 0,0 l/m 3,7 km/h (1 Bft) W-SW 247 5 min 0,0 UV-I -0,4 C 8,6 C 5,0 km/h (1 Bft)
07.04.2015 09:42 2,7 C 16,0 C 3,6 C 8,5 C 8,5 C 5,8 C 79 % 83 % 100 % 1036,3 hPa 0,0 l/m 3,7 km/h (1 Bft) N 0 7 min 0,0 UV-I -0,6 C 8,5 C 8,9 km/h (2 Bft)
07.04.2015 09:50 3,2 C 15,9 C 4,0 C 7,2 C 7,2 C 4,0 C 77 % 82 % 100 % 1036,3 hPa 0,0 l/m 4,2 km/h (1 Bft) W-SW 247 8 min 0,0 UV-I -0,4 C 7,2 C 5,3 km/h (1 Bft)
07.04.2015 09:55 3,5 C 15,9 C 4,4 C 6,7 C 6,7 C 3,2 C 77 % 81 % 84 % 1036,4 hPa 0,0 l/m 5,3 km/h (1 Bft) SW 225 0 min 0,0 UV-I -0,1 C 5,9 C 6,8 km/h (2 Bft)
07.04.2015 10:00 3,4 C 15,9 C 4,7 C 6,7 C 6,7 C 3,3 C 77 % 80 % 87 % 1036,4 hPa 0,0 l/m 4,8 km/h (1 Bft) S-SW 202 5 min 0,0 UV-I -0,2 C 6,1 C 11,1 km/h (2 Bft)
07.04.2015 10:05 3,9 C 15,9 C 5,2 C 7,1 C 7,1 C 3,2 C 77 % 80 % 84 % 1036,4 hPa 0,0 l/m 4,2 km/h (1 Bft) W-SW 247 0 min 0,0 UV-I 0,2 C 7,1 C 6,6 km/h (2 Bft)
07.04.2015 10:10 4,1 C 15,9 C 5,6 C 7,4 C 7,4 C 3,3 C 75 % 79 % 87 % 1036,4 hPa 0,0 l/m 5,3 km/h (1 Bft) SW 225 5 min 0,0 UV-I 0,1 C 6,7 C 8,2 km/h (2 Bft)
07.04.2015 10:15 4,4 C 16,0 C 5,8 C 7,6 C 7,6 C 3,2 C 73 % 77 % 84 % 1036,6 hPa 0,0 l/m 6,6 km/h (2 Bft) W-SW 247 0 min 0,0 UV-I -0,0 C 6,5 C 5,8 km/h (2 Bft)
07.04.2015 10:20 4,5 C 16,0 C 5,9 C 7,4 C 7,4 C 2,9 C 74 % 76 % 76 % 1036,6 hPa 0,0 l/m 6,4 km/h (2 Bft) W-SW 247 0 min 0,0 UV-I 0,3 C 6,4 C 14,5 km/h (3 Bft)
07.04.2015 10:25 4,7 C 15,9 C 6,2 C 7,2 C 7,2 C 2,5 C 73 % 75 % 66 % 1036,6 hPa 0,0 l/m 6,9 km/h (2 Bft) SW 225 0 min 0,0 UV-I 0,3 C 6,0 C 8,9 km/h (2 Bft)
07.04.2015 10:30 4,8 C 15,9 C 6,7 C 7,2 C 7,2 C 2,4 C 73 % 75 % 63 % 1036,6 hPa 0,0 l/m 7,4 km/h (2 Bft) SW 225 0 min 0,0 UV-I 0,4 C 5,9 C 7,1 km/h (2 Bft)
07.04.2015 10:35 5,2 C 16,0 C 7,1 C 7,6 C 7,6 C 2,4 C 72 % 73 % 63 % 1036,6 hPa 0,0 l/m 6,9 km/h (2 Bft) W-SW 247 0 min 0,0 UV-I 0,6 C 6,5 C 6,4 km/h (2 Bft)
07.04.2015 10:40 5,3 C 16,0 C 7,1 C 7,8 C 7,8 C 2,5 C 72 % 73 % 66 % 1036,6 hPa 0,0 l/m 6,3 km/h (2 Bft) W-SW 247 0 min 0,0 UV-I 0,7 C 6,9 C 11,4 km/h (2 Bft)
07.04.2015 10:45 5,7 C 16,0 C 7,6 C 8,2 C 8,2 C 2,5 C 71 % 72 % 66 % 1036,6 hPa 0,0 l/m 6,0 km/h (2 Bft) N-NW 337 0 min 0,0 UV-I 0,9 C 7,4 C 7,2 km/h (2 Bft)
07.04.2015 10:50 5,9 C 16,0 C 8,5 C 8,5 C 8,5 C 2,6 C 70 % 71 % 68 % 1036,6 hPa 0,0 l/m 6,4 km/h (2 Bft) SW 225 0 min 0,0 UV-I 0,9 C 7,6 C 13,8 km/h (3 Bft)
07.04.2015 10:55 6,1 C 16,0 C 9,1 C 8,9 C 8,9 C 2,8 C 70 % 68 % 74 % 1036,6 hPa 0,0 l/m 7,1 km/h (2 Bft) W-SW 247 0 min 0,0 UV-I 1,0 C 7,9 C 11,9 km/h (2 Bft)
07.04.2015 11:00 6,3 C 16,0 C 9,1 C 9,1 C 8,7 C 2,8 C 69 % 68 % 74 % 1036,6 hPa 0,0 l/m 8,0 km/h (2 Bft) W-SW 247 0 min 0,0 UV-I 1,0 C 7,5 C 10,0 km/h (2 Bft)
07.04.2015 11:05 6,6 C 16,1 C 8,8 C 8,8 C 8,3 C 2,2 C 67 % 66 % 58 % 1036,6 hPa 0,0 l/m 8,5 km/h (2 Bft) SW 225 0 min 0,0 UV-I 0,9 C 6,9 C 5,1 km/h (1 Bft)
07.04.2015 11:10 6,6 C 16,1 C 8,7 C 8,7 C 8,4 C 2,1 C 66 % 66 % 55 % 1036,6 hPa 0,0 l/m 8,2 km/h (2 Bft) W-SW 247 0 min 0,0 UV-I 0,7 C 7,1 C 5,3 km/h (1 Bft)
07.04.2015 11:15 6,8 C 16,1 C 9,1 C 8,9 C 8,7 C 2,1 C 64 % 65 % 55 % 1036,6 hPa 0,0 l/m 7,7 km/h (2 Bft) W-SW 247 0 min 0,0 UV-I 0,5 C 7,5 C 6,8 km/h (2 Bft)
07.04.2015 11:20 7,1 C 16,1 C 9,9 C 9,1 C 9,1 C 2,0 C 65 % 65 % 53 % 1036,6 hPa 0,0 l/m 7,4 km/h (2 Bft) S-SW 202 0 min 0,0 UV-I 1,0 C 8,1 C 10,0 km/h (2 Bft)
07.04.2015 11:25 7,1 C 16,1 C 10,2 C 9,1 C 9,1 C 2,0 C 65 % 61 % 53 % 1036,6 hPa 0,0 l/m 7,6 km/h (2 Bft) S-SO 157 0 min 0,0 UV-I 1,0 C 8,0 C 9,0 km/h (2 Bft)
07.04.2015 11:30 7,2 C 16,2 C 10,4 C 9,4 C 9,4 C 2,2 C 64 % 62 % 58 % 1036,6 hPa 0,0 l/m 7,2 km/h (2 Bft) W-SW 247 0 min 0,0 UV-I 0,9 C 8,5 C 16,6 km/h (3 Bft)
07.04.2015 11:35 7,5 C 16,2 C 11,1 C 9,9 C 9,9 C 2,4 C 62 % 59 % 63 % 1036,1 hPa 0,0 l/m 7,1 km/h (2 Bft) W-SW 247 0 min 0,0 UV-I 0,7 C 9,1 C 13,5 km/h (3 Bft)
07.04.2015 11:40 7,5 C 16,2 C 11,7 C 9,9 C 9,4 C 2,4 C 62 % 58 % 63 % 1036,1 hPa 0,0 l/m 8,9 km/h (2 Bft) W-SW 247 0 min 0,0 UV-I 0,7 C 8,1 C 22,9 km/h (4 Bft)
07.04.2015 11:45 7,7 C 16,2 C 11,3 C 9,8 C 9,5 C 2,1 C 62 % 57 % 55 % 1036,1 hPa 0,0 l/m 9,2 km/h (2 Bft) S-SW 202 0 min 0,0 UV-I 0,9 C 8,2 C 12,6 km/h (3 Bft)
07.04.2015 11:50 7,6 C 16,2 C 10,8 C 9,6 C 9,2 C 2,0 C 61 % 57 % 53 % 1036,1 hPa 0,0 l/m 8,2 km/h (2 Bft) W-SW 247 0 min 0,0 UV-I 0,6 C 8,0 C 10,6 km/h (2 Bft)
07.04.2015 11:55 7,6 C 16,2 C 10,6 C 9,0 C 9,0 C 1,4 C 62 % 58 % 37 % 1036,0 hPa 0,0 l/m 7,4 km/h (2 Bft) SW 225 0 min 0,0 UV-I 0,8 C 8,0 C 5,3 km/h (1 Bft)
07.04.2015 12:00 7,6 C 16,3 C 10,7 C 8,8 C 8,8 C 1,2 C 60 % 57 % 32 % 1036,0 hPa 0,0 l/m 7,4 km/h (2 Bft) W-SW 247 0 min 0,0 UV-I 0,3 C 7,7 C 10,5 km/h (2 Bft)
07.04.2015 12:05 7,8 C 16,3 C 11,0 C 9,2 C 8,9 C 1,4 C 58 % 56 % 37 % 1036,0 hPa 0,0 l/m 8,7 km/h (2 Bft) SW 225 0 min 0,0 UV-I 0,1 C 7,6 C 14,5 km/h (3 Bft)
07.04.2015 12:10 7,9 C 16,3 C 11,5 C 9,5 C 9,3 C 1,6 C 59 % 56 % 42 % 1036,0 hPa 0,0 l/m 8,5 km/h (2 Bft) W 270 0 min 0,0 UV-I 0,4 C 8,1 C 3,4 km/h (1 Bft)
07.04.2015 12:15 8,3 C 16,3 C 12,3 C 11,6 C 11,6 C 3,3 C 59 % 55 % 87 % 1036,0 hPa 0,0 l/m 6,9 km/h (2 Bft) W 270 5 min 0,0 UV-I 0,8 C 11,6 C 9,5 km/h (2 Bft)
07.04.2015 12:20 8,4 C 16,4 C 12,9 C 12,6 C 12,6 C 4,2 C 58 % 53 % 100 % 1036,0 hPa 0,0 l/m 6,4 km/h (2 Bft) W-SW 247 5 min 0,0 UV-I 0,6 C 12,6 C 9,3 km/h (2 Bft)
07.04.2015 12:25 8,6 C 16,4 C 13,6 C 13,1 C 13,1 C 4,5 C 57 % 53 % 100 % 1036,0 hPa 0,0 l/m 7,4 km/h (2 Bft) W 270 5 min 0,0 UV-I 0,6 C 13,1 C 8,2 km/h (2 Bft)
07.04.2015 12:30 8,8 C 16,4 C 14,3 C 13,3 C 13,3 C 4,5 C 58 % 52 % 100 % 1036,0 hPa 0,0 l/m 7,6 km/h (2 Bft) W-SW 247 5 min 0,0 UV-I 1,0 C 13,3 C 12,1 km/h (2 Bft)
07.04.2015 12:35 9,1 C 16,4 C 15,1 C 13,8 C 13,8 C 4,7 C 57 % 51 % 100 % 1035,3 hPa 0,0 l/m 7,6 km/h (2 Bft) W-SW 247 5 min 0,0 UV-I 1,0 C 13,8 C 9,3 km/h (2 Bft)
07.04.2015 12:42 9,1 C 16,5 C 15,5 C 14,0 C 14,0 C 4,9 C 57 % 49 % 100 % 1035,3 hPa 0,0 l/m 6,8 km/h (2 Bft) N 0 7 min 0,0 UV-I 1,0 C 14,0 C 12,2 km/h (2 Bft)
07.04.2015 12:50 9,5 C 16,4 C 15,2 C 13,9 C 13,7 C 4,4 C 57 % 47 % 100 % 1035,3 hPa 0,0 l/m 8,5 km/h (2 Bft) W-SW 247 8 min 0,0 UV-I 1,4 C 13,7 C 10,9 km/h (2 Bft)
07.04.2015 12:55 9,6 C 16,4 C 15,6 C 14,5 C 14,5 C 4,9 C 56 % 47 % 100 % 1035,3 hPa 0,0 l/m 7,4 km/h (2 Bft) W-SW 247 5 min 0,0 UV-I 1,3 C 14,5 C 8,0 km/h (2 Bft)
07.04.2015 13:00 9,8 C 16,5 C 15,6 C 15,0 C 15,0 C 5,2 C 56 % 48 % 100 % 1035,3 hPa 0,0 l/m 6,8 km/h (2 Bft) W 270 5 min 0,0 UV-I 1,4 C 15,0 C 12,2 km/h (2 Bft)
07.04.2015 13:05 10,0 C 16,5 C 15,5 C 14,9 C 14,9 C 4,9 C 54 % 46 % 100 % 1035,3 hPa 0,0 l/m 7,1 km/h (2 Bft) S 180 5 min 0,0 UV-I 1,1 C 14,9 C 12,4 km/h (3 Bft)
07.04.2015 13:10 10,0 C 16,5 C 15,5 C 14,7 C 14,7 C 4,7 C 55 % 48 % 100 % 1035,3 hPa 0,0 l/m 7,2 km/h (2 Bft) W-SW 247 5 min 0,0 UV-I 1,4 C 14,7 C 7,2 km/h (2 Bft)
07.04.2015 13:15 10,0 C 16,5 C 15,7 C 14,8 C 14,8 C 4,8 C 54 % 46 % 100 % 1035,3 hPa 0,0 l/m 7,6 km/h (2 Bft) W-SW 247 5 min 0,0 UV-I 1,1 C 14,8 C 9,7 km/h (2 Bft)
07.04.2015 13:20 10,3 C 16,6 C 15,9 C 15,2 C 15,2 C 4,9 C 55 % 46 % 100 % 1035,3 hPa 0,0 l/m 6,8 km/h (2 Bft) W-SW 247 5 min 0,0 UV-I 1,7 C 15,2 C 7,9 km/h (2 Bft)
07.04.2015 13:25 10,5 C 16,6 C 15,6 C 15,7 C 15,7 C 5,2 C 53 % 46 % 100 % 1035,3 hPa 0,0 l/m 6,6 km/h (2 Bft) W-SW 247 5 min 0,0 UV-I 1,3 C 15,7 C 11,6 km/h (2 Bft)
07.04.2015 13:30 10,4 C 16,6 C 15,3 C 15,3 C 15,3 C 4,9 C 54 % 46 % 100 % 1035,3 hPa 0,0 l/m 7,1 km/h (2 Bft) W-SW 247 5 min 0,0 UV-I 1,5 C 15,3 C 9,0 km/h (2 Bft)
07.04.2015 13:35 10,4 C 16,6 C 15,7 C 15,2 C 15,1 C 4,8 C 53 % 46 % 100 % 1035,3 hPa 0,0 l/m 8,7 km/h (2 Bft) W-SW 247 5 min 0,0 UV-I 1,2 C 15,1 C 11,1 km/h (2 Bft)
07.04.2015 13:40 10,7 C 16,7 C 15,9 C 15,1 C 15,1 C 4,4 C 53 % 45 % 100 % 1035,3 hPa 0,0 l/m 8,4 km/h (2 Bft) W 270 5 min 0,0 UV-I 1,5 C 15,1 C 9,5 km/h (2 Bft)
07.04.2015 13:45 10,7 C 16,7 C 16,0 C 15,0 C 14,8 C 4,3 C 52 % 45 % 100 % 1035,3 hPa 0,0 l/m 8,9 km/h (2 Bft) W-SW 247 5 min 0,0 UV-I 1,3 C 14,8 C 10,1 km/h (2 Bft)
07.04.2015 13:50 10,6 C 16,7 C 16,0 C 14,8 C 14,7 C 4,2 C 52 % 45 % 100 % 1035,3 hPa 0,0 l/m 9,0 km/h (2 Bft) O-SO 112 5 min 0,0 UV-I 1,2 C 14,7 C 9,8 km/h (2 Bft)
07.04.2015 13:55 10,8 C 16,7 C 15,7 C 15,0 C 15,0 C 4,2 C 53 % 46 % 100 % 1034,6 hPa 0,0 l/m 7,1 km/h (2 Bft) W-SW 247 5 min 0,0 UV-I 1,6 C 15,0 C 13,4 km/h (3 Bft)
07.04.2015 14:00 10,9 C 16,8 C 15,5 C 14,9 C 14,9 C 4,0 C 51 % 44 % 100 % 1034,6 hPa 0,0 l/m 7,4 km/h (2 Bft) W-SW 247 5 min 0,0 UV-I 1,2 C 14,9 C 15,9 km/h (3 Bft)
07.04.2015 14:05 10,7 C 16,8 C 15,1 C 14,6 C 14,3 C 3,9 C 51 % 46 % 100 % 1034,6 hPa 0,0 l/m 8,9 km/h (2 Bft) W-SW 247 5 min 0,0 UV-I 1,0 C 14,3 C 16,7 km/h (3 Bft)
07.04.2015 14:10 10,6 C 16,8 C 14,7 C 14,1 C 13,7 C 3,5 C 51 % 45 % 92 % 1034,6 hPa 0,0 l/m 10,0 km/h (2 Bft) SW 225 5 min 0,0 UV-I 0,9 C 13,7 C 13,8 km/h (3 Bft)
07.04.2015 14:15 10,7 C 16,8 C 14,7 C 14,2 C 14,2 C 3,5 C 52 % 46 % 92 % 1034,2 hPa 0,0 l/m 9,3 km/h (2 Bft) W-SW 247 5 min 0,0 UV-I 1,3 C 14,2 C 9,5 km/h (2 Bft)
07.04.2015 14:20 10,7 C 16,8 C 14,4 C 14,2 C 14,2 C 3,5 C 52 % 46 % 92 % 1034,2 hPa 0,0 l/m 8,0 km/h (2 Bft) S-SW 202 5 min 0,0 UV-I 1,3 C 14,2 C 13,0 km/h (3 Bft)
07.04.2015 14:25 10,7 C 16,8 C 14,1 C 13,9 C 13,6 C 3,2 C 52 % 48 % 84 % 1034,2 hPa 0,0 l/m 8,2 km/h (2 Bft) W-SW 247 0 min 0,0 UV-I 1,3 C 13,6 C 5,8 km/h (2 Bft)
07.04.2015 14:30 10,9 C 16,8 C 14,3 C 14,1 C 14,1 C 3,2 C 52 % 48 % 84 % 1034,2 hPa 0,0 l/m 7,2 km/h (2 Bft) W-SW 247 0 min 0,0 UV-I 1,4 C 14,1 C 4,8 km/h (1 Bft)
07.04.2015 14:35 11,1 C 16,9 C 14,1 C 14,4 C 14,4 C 3,3 C 51 % 48 % 87 % 1034,2 hPa 0,0 l/m 7,1 km/h (2 Bft) W-SW 247 5 min 0,0 UV-I 1,4 C 14,4 C 10,8 km/h (2 Bft)
07.04.2015 14:40 11,1 C 16,9 C 14,2 C 14,8 C 14,8 C 3,7 C 52 % 48 % 97 % 1034,2 hPa 0,0 l/m 6,6 km/h (2 Bft) W-SW 247 5 min 0,0 UV-I 1,6 C 14,8 C 6,1 km/h (2 Bft)
07.04.2015 14:45 11,5 C 17,0 C 14,0 C 15,2 C 15,2 C 3,7 C 50 % 49 % 97 % 1034,2 hPa 0,0 l/m 6,3 km/h (2 Bft) S 180 5 min 0,0 UV-I 1,4 C 15,2 C 6,9 km/h (2 Bft)
07.04.2015 14:50 11,4 C 17,0 C 13,8 C 15,4 C 15,4 C 4,0 C 51 % 49 % 100 % 1034,2 hPa 0,0 l/m 5,3 km/h (1 Bft) S-SW 202 5 min 0,0 UV-I 1,6 C 15,4 C 6,6 km/h (2 Bft)
07.04.2015 14:55 11,6 C 17,1 C 13,5 C 15,8 C 15,8 C 4,2 C 49 % 49 % 100 % 1034,2 hPa 0,0 l/m 5,6 km/h (1 Bft) S 180 5 min 0,0 UV-I 1,3 C 15,8 C 6,9 km/h (2 Bft)
07.04.2015 15:00 11,6 C 17,1 C 13,3 C 15,7 C 15,7 C 4,1 C 48 % 49 % 100 % 1034,2 hPa 0,0 l/m 7,9 km/h (2 Bft) W-SW 247 5 min 0,0 UV-I 1,0 C 15,7 C 9,0 km/h (2 Bft)
07.04.2015 15:05 11,6 C 17,2 C 13,2 C 15,9 C 15,9 C 4,3 C 49 % 50 % 100 % 1034,2 hPa 0,0 l/m 7,6 km/h (2 Bft) SW 225 5 min 0,0 UV-I 1,3 C 15,9 C 7,1 km/h (2 Bft)
07.04.2015 15:10 11,9 C 17,2 C 13,1 C 16,2 C 16,2 C 4,3 C 47 % 49 % 100 % 1034,2 hPa 0,0 l/m 7,1 km/h (2 Bft) SW 225 5 min 0,0 UV-I 1,0 C 16,2 C 13,8 km/h (3 Bft)
07.04.2015 15:15 11,7 C 17,2 C 12,8 C 15,9 C 15,7 C 4,2 C 44 % 47 % 100 % 1033,2 hPa 0,0 l/m 8,4 km/h (2 Bft) SW 225 5 min 0,0 UV-I -0,1 C 15,7 C 11,4 km/h (2 Bft)
07.04.2015 15:20 11,9 C 17,2 C 12,7 C 15,9 C 15,9 C 4,0 C 46 % 49 % 100 % 1033,2 hPa 0,0 l/m 8,0 km/h (2 Bft) S-SW 202 5 min 0,0 UV-I 0,7 C 15,9 C 5,8 km/h (2 Bft)
07.04.2015 15:25 12,4 C 17,3 C 12,8 C 16,9 C 16,9 C 4,5 C 46 % 49 % 100 % 1033,2 hPa 0,0 l/m 5,5 km/h (1 Bft) W-SW 247 5 min 0,0 UV-I 1,1 C 16,9 C 5,8 km/h (2 Bft)
07.04.2015 15:30 12,4 C 17,3 C 12,9 C 17,0 C 17,0 C 4,6 C 45 % 49 % 100 % 1033,2 hPa 0,0 l/m 5,5 km/h (1 Bft) W-SW 247 5 min 0,0 UV-I 0,8 C 17,0 C 8,4 km/h (2 Bft)
07.04.2015 15:35 12,3 C 17,3 C 13,0 C 16,6 C 16,6 C 4,3 C 45 % 49 % 100 % 1033,2 hPa 0,0 l/m 8,5 km/h (2 Bft) W-SW 247 5 min 0,0 UV-I 0,7 C 16,6 C 19,3 km/h (3 Bft)
07.04.2015 15:42 12,3 C 17,3 C 13,1 C 16,7 C 16,7 C 4,4 C 44 % 49 % 100 % 1033,2 hPa 0,0 l/m 9,0 km/h (2 Bft) N 0 7 min 0,0 UV-I 0,4 C 16,7 C 11,7 km/h (2 Bft)
07.04.2015 15:50 12,5 C 17,4 C 13,7 C 17,0 C 17,0 C 4,5 C 45 % 49 % 100 % 1033,2 hPa 0,0 l/m 8,2 km/h (2 Bft) W 270 8 min 0,0 UV-I 0,9 C 17,0 C 6,8 km/h (2 Bft)
07.04.2015 15:55 12,5 C 17,4 C 13,6 C 16,9 C 16,9 C 4,4 C 43 % 47 % 100 % 1032,8 hPa 0,0 l/m 8,9 km/h (2 Bft) W 270 5 min 0,0 UV-I 0,3 C 16,9 C 13,5 km/h (3 Bft)
07.04.2015 16:00 12,5 C 17,4 C 13,6 C 16,7 C 16,5 C 4,2 C 44 % 47 % 100 % 1032,8 hPa 0,0 l/m 10,3 km/h (2 Bft) W-SW 247 5 min 0,0 UV-I 0,6 C 16,5 C 11,3 km/h (2 Bft)
07.04.2015 16:05 12,5 C 17,5 C 13,6 C 16,6 C 16,6 C 4,1 C 43 % 47 % 100 % 1032,8 hPa 0,0 l/m 9,8 km/h (2 Bft) W-SW 247 5 min 0,0 UV-I 0,3 C 16,6 C 8,4 km/h (2 Bft)
07.04.2015 16:10 12,5 C 17,5 C 13,7 C 16,7 C 16,7 C 4,2 C 43 % 47 % 100 % 1032,8 hPa 0,0 l/m 9,3 km/h (2 Bft) W-SW 247 5 min 0,0 UV-I 0,3 C 16,7 C 10,6 km/h (2 Bft)
07.04.2015 16:15 12,3 C 17,5 C 13,3 C 15,9 C 15,4 C 3,6 C 45 % 48 % 95 % 1032,8 hPa 0,0 l/m 9,2 km/h (2 Bft) W-SW 247 5 min 0,0 UV-I 0,7 C 15,4 C 11,1 km/h (2 Bft)
07.04.2015 16:20 12,4 C 17,5 C 13,5 C 15,8 C 15,8 C 3,4 C 46 % 50 % 89 % 1032,8 hPa 0,0 l/m 7,4 km/h (2 Bft) SW 225 5 min 0,0 UV-I 1,1 C 15,8 C 9,7 km/h (2 Bft)
07.04.2015 16:25 12,5 C 17,5 C 13,7 C 16,5 C 16,5 C 4,0 C 45 % 49 % 100 % 1032,8 hPa 0,0 l/m 7,6 km/h (2 Bft) W-SW 247 5 min 0,0 UV-I 0,9 C 16,5 C 18,5 km/h (3 Bft)
07.04.2015 16:30 12,4 C 17,6 C 13,5 C 16,2 C 16,1 C 3,8 C 46 % 49 % 100 % 1032,8 hPa 0,0 l/m 8,7 km/h (2 Bft) W 270 5 min 0,0 UV-I 1,1 C 16,1 C 5,8 km/h (2 Bft)
07.04.2015 16:35 12,6 C 17,6 C 13,4 C 15,9 C 15,9 C 3,3 C 47 % 50 % 87 % 1032,8 hPa 0,0 l/m 7,2 km/h (2 Bft) SW 225 5 min 0,0 UV-I 1,6 C 15,9 C 9,2 km/h (2 Bft)
07.04.2015 16:40 12,7 C 17,6 C 13,3 C 16,4 C 16,4 C 3,7 C 46 % 49 % 97 % 1032,8 hPa 0,0 l/m 5,3 km/h (1 Bft) W-SW 247 5 min 0,0 UV-I 1,4 C 16,4 C 6,9 km/h (2 Bft)
07.04.2015 16:45 12,5 C 17,6 C 13,1 C 16,0 C 16,0 C 3,5 C 46 % 49 % 92 % 1032,8 hPa 0,0 l/m 5,3 km/h (1 Bft) SW 225 5 min 0,0 UV-I 1,2 C 16,0 C 8,2 km/h (2 Bft)
07.04.2015 16:50 12,4 C 17,6 C 13,1 C 15,6 C 15,6 C 3,2 C 46 % 49 % 84 % 1032,8 hPa 0,0 l/m 5,0 km/h (1 Bft) W-SW 247 0 min 0,0 UV-I 1,1 C 15,6 C 3,9 km/h (1 Bft)
07.04.2015 16:55 12,5 C 17,7 C 13,1 C 15,7 C 15,7 C 3,2 C 45 % 50 % 84 % 1032,6 hPa 0,0 l/m 6,3 km/h (2 Bft) SW 225 0 min 0,0 UV-I 0,9 C 15,7 C 21,6 km/h (4 Bft)
07.04.2015 17:00 12,5 C 17,7 C 12,9 C 15,6 C 15,6 C 3,1 C 45 % 49 % 82 % 1032,6 hPa 0,0 l/m 6,3 km/h (2 Bft) S-SW 202 0 min 0,0 UV-I 0,9 C 15,6 C 5,8 km/h (2 Bft)
07.04.2015 17:05 12,4 C 17,7 C 13,0 C 15,4 C 15,4 C 3,0 C 45 % 50 % 79 % 1032,6 hPa 0,0 l/m 7,4 km/h (2 Bft) W-SW 247 0 min 0,0 UV-I 0,8 C 15,4 C 11,1 km/h (2 Bft)
07.04.2015 17:10 12,4 C 17,7 C 13,1 C 15,4 C 15,4 C 3,0 C 45 % 49 % 79 % 1032,6 hPa 0,0 l/m 6,9 km/h (2 Bft) W-SW 247 0 min 0,0 UV-I 0,8 C 15,4 C 7,1 km/h (2 Bft)
07.04.2015 17:15 12,6 C 17,7 C 13,6 C 15,8 C 15,8 C 3,2 C 44 % 48 % 84 % 1032,6 hPa 0,0 l/m 6,0 km/h (2 Bft) SW 225 0 min 0,0 UV-I 0,7 C 15,8 C 2,6 km/h (1 Bft)
07.04.2015 17:20 12,6 C 17,7 C 13,7 C 16,1 C 16,1 C 3,5 C 44 % 48 % 92 % 1032,6 hPa 0,0 l/m 4,7 km/h (1 Bft) W-SW 247 5 min 0,0 UV-I 0,7 C 16,1 C 9,2 km/h (2 Bft)
07.04.2015 17:25 12,7 C 17,8 C 13,9 C 16,1 C 16,1 C 3,4 C 44 % 48 % 89 % 1032,6 hPa 0,0 l/m 4,8 km/h (1 Bft) SW 225 5 min 0,0 UV-I 0,8 C 16,1 C 6,1 km/h (2 Bft)
07.04.2015 17:30 12,7 C 17,8 C 14,0 C 16,1 C 16,1 C 3,4 C 43 % 47 % 89 % 1032,6 hPa 0,0 l/m 5,8 km/h (2 Bft) W-SW 247 5 min 0,0 UV-I 0,5 C 16,1 C 7,6 km/h (2 Bft)
07.04.2015 17:35 12,7 C 17,8 C 13,9 C 15,9 C 15,9 C 3,2 C 44 % 47 % 84 % 1032,2 hPa 0,0 l/m 5,8 km/h (2 Bft) S-SW 202 0 min 0,0 UV-I 0,8 C 15,9 C 5,8 km/h (2 Bft)
07.04.2015 17:40 12,6 C 17,8 C 13,9 C 15,6 C 15,6 C 3,0 C 43 % 46 % 79 % 1032,2 hPa 0,0 l/m 6,3 km/h (2 Bft) NW 315 0 min 0,0 UV-I 0,4 C 15,6 C 6,8 km/h (2 Bft)
07.04.2015 17:45 12,5 C 17,8 C 13,6 C 15,4 C 15,4 C 2,9 C 44 % 46 % 76 % 1032,2 hPa 0,0 l/m 6,1 km/h (2 Bft) SW 225 0 min 0,0 UV-I 0,6 C 15,4 C 6,6 km/h (2 Bft)
07.04.2015 17:50 12,5 C 17,9 C 13,7 C 15,4 C 15,4 C 2,9 C 44 % 46 % 76 % 1032,2 hPa 0,0 l/m 5,1 km/h (1 Bft) NO 45 0 min 0,0 UV-I 0,6 C 15,4 C 5,6 km/h (1 Bft)
07.04.2015 17:55 12,5 C 17,9 C 13,3 C 15,4 C 15,4 C 2,9 C 44 % 46 % 76 % 1032,2 hPa 0,0 l/m 4,5 km/h (1 Bft) S 180 0 min 0,0 UV-I 0,6 C 15,4 C 4,8 km/h (1 Bft)
07.04.2015 18:00 12,7 C 17,9 C 13,1 C 15,4 C 15,4 C 2,7 C 44 % 47 % 71 % 1032,2 hPa 0,0 l/m 4,7 km/h (1 Bft) W-SW 247 0 min 0,0 UV-I 0,8 C 15,4 C 6,0 km/h (2 Bft)
07.04.2015 18:05 12,7 C 17,9 C 12,8 C 15,3 C 15,3 C 2,6 C 45 % 48 % 68 % 1032,2 hPa 0,0 l/m 4,3 km/h (1 Bft) W-SW 247 0 min 0,0 UV-I 1,1 C 15,3 C 4,8 km/h (1 Bft)
07.04.2015 18:10 12,7 C 17,9 C 12,7 C 15,2 C 15,2 C 2,5 C 44 % 49 % 66 % 1032,2 hPa 0,0 l/m 4,3 km/h (1 Bft) W-SW 247 0 min 0,0 UV-I 0,8 C 15,2 C 5,8 km/h (2 Bft)
07.04.2015 18:15 12,4 C 18,0 C 12,4 C 14,7 C 14,7 C 2,3 C 45 % 49 % 61 % 1032,2 hPa 0,0 l/m 4,7 km/h (1 Bft) S-SO 157 0 min 0,0 UV-I 0,8 C 14,7 C 7,1 km/h (2 Bft)
07.04.2015 18:20 12,5 C 18,0 C 12,3 C 14,9 C 14,9 C 2,4 C 45 % 50 % 63 % 1032,2 hPa 0,0 l/m 4,8 km/h (1 Bft) W 270 5 min 0,0 UV-I 0,9 C 14,9 C 7,2 km/h (2 Bft)
07.04.2015 18:25 12,5 C 18,0 C 12,0 C 14,9 C 14,9 C 2,4 C 44 % 50 % 63 % 1032,2 hPa 0,0 l/m 4,7 km/h (1 Bft) SW 225 5 min 0,0 UV-I 0,6 C 14,9 C 6,8 km/h (2 Bft)
07.04.2015 18:30 12,4 C 18,0 C 12,0 C 14,7 C 14,7 C 2,3 C 43 % 49 % 61 % 1032,2 hPa 0,0 l/m 4,7 km/h (1 Bft) S 180 5 min 0,0 UV-I 0,2 C 14,7 C 3,7 km/h (1 Bft)
07.04.2015 18:35 12,4 C 18,0 C 11,7 C 14,3 C 14,3 C 1,9 C 43 % 49 % 50 % 1032,2 hPa 0,0 l/m 4,5 km/h (1 Bft) O 90 5 min 0,0 UV-I 0,2 C 14,3 C 6,1 km/h (2 Bft)
07.04.2015 18:41 12,2 C 18,0 C 11,5 C 13,9 C 13,9 C 1,7 C 44 % 50 % 45 % 1032,2 hPa 0,0 l/m 4,2 km/h (1 Bft) N 0 0 min 0,0 UV-I 0,3 C 13,9 C 4,5 km/h (1 Bft)
07.04.2015 18:50 12,1 C 18,0 C 11,3 C 13,2 C 13,2 C 1,1 C 46 % 52 % 29 % 1032,2 hPa 0,0 l/m 4,5 km/h (1 Bft) W-SW 247 0 min 0,0 UV-I 0,8 C 13,2 C 7,6 km/h (2 Bft)
07.04.2015 18:55 12,0 C 18,0 C 11,1 C 12,9 C 12,9 C 0,9 C 47 % 53 % 24 % 1032,2 hPa 0,0 l/m 4,7 km/h (1 Bft) W-SW 247 0 min 0,0 UV-I 1,0 C 12,9 C 8,4 km/h (2 Bft)
07.04.2015 19:00 11,9 C 18,0 C 11,1 C 12,7 C 12,7 C 0,8 C 47 % 53 % 21 % 1032,2 hPa 0,0 l/m 4,8 km/h (1 Bft) W-SW 247 0 min 0,0 UV-I 1,0 C 12,7 C 6,0 km/h (2 Bft)
07.04.2015 19:05 11,7 C 18,0 C 10,8 C 12,4 C 12,4 C 0,7 C 48 % 54 % 18 % 1032,2 hPa 0,0 l/m 4,7 km/h (1 Bft) SW 225 0 min 0,0 UV-I 1,1 C 12,4 C 4,3 km/h (1 Bft)
07.04.2015 19:10 11,6 C 18,0 C 10,7 C 12,3 C 12,3 C 0,7 C 49 % 55 % 18 % 1032,2 hPa 0,0 l/m 4,3 km/h (1 Bft) SW 225 0 min 0,0 UV-I 1,3 C 12,3 C 3,4 km/h (1 Bft)
07.04.2015 19:15 11,7 C 18,0 C 10,5 C 12,3 C 12,3 C 0,6 C 49 % 55 % 16 % 1032,2 hPa 0,0 l/m 3,7 km/h (1 Bft) S-SW 202 0 min 0,0 UV-I 1,3 C 12,3 C 0,0 km/h (0 Bft)
07.04.2015 19:20 11,5 C 18,0 C 10,5 C 12,0 C 12,0 C 0,5 C 50 % 55 % 13 % 1032,2 hPa 0,0 l/m 2,3 km/h (1 Bft) S-SO 157 0 min 0,0 UV-I 1,4 C 12,0 C 1,6 km/h (1 Bft)
07.04.2015 19:25 11,2 C 18,0 C 10,0 C 11,3 C 11,3 C 0,1 C 51 % 57 % 3 % 1032,2 hPa 0,0 l/m 1,4 km/h (1 Bft) SW 225 0 min 0,0 UV-I 1,4 C 11,3 C 1,6 km/h (1 Bft)
07.04.2015 19:30 11,1 C 18,0 C 9,9 C 11,0 C 10,8 C 0,0 C 51 % 57 % 0 % 1032,2 hPa 0,0 l/m 1,3 km/h (1 Bft) NW 315 0 min 0,0 UV-I 1,4 C 10,8 C 1,6 km/h (1 Bft)
07.04.2015 19:35 10,9 C 18,0 C 9,7 C 10,7 C 10,2 C 0,0 C 52 % 58 % 0 % 1031,8 hPa 0,0 l/m 0,8 km/h (0 Bft) SW 225 0 min 0,0 UV-I 1,4 C 10,2 C 2,7 km/h (1 Bft)
07.04.2015 19:40 10,7 C 18,0 C 9,4 C 10,4 C 9,8 C 0,0 C 53 % 59 % 0 % 1031,8 hPa 0,0 l/m 1,0 km/h (0 Bft) NW 315 0 min 0,0 UV-I 1,5 C 9,8 C 1,6 km/h (1 Bft)
07.04.2015 19:45 10,5 C 18,0 C 9,2 C 10,1 C 9,3 C 0,0 C 54 % 59 % 0 % 1031,8 hPa 0,0 l/m 0,8 km/h (0 Bft) N-NO 22 0 min 0,0 UV-I 1,6 C 9,3 C 0,0 km/h (0 Bft)
07.04.2015 19:50 10,4 C 18,0 C 9,0 C 9,9 C 9,0 C 0,0 C 55 % 60 % 0 % 1031,8 hPa 0,0 l/m 0,3 km/h (0 Bft) N-NO 22 0 min 0,0 UV-I 1,8 C 9,0 C 0,0 km/h (0 Bft)
07.04.2015 19:55 10,1 C 18,0 C 8,9 C 9,6 C 8,5 C 0,0 C 55 % 61 % 0 % 1031,7 hPa 0,0 l/m 0,3 km/h (0 Bft) N 360 0 min 0,0 UV-I 1,5 C 8,5 C 2,1 km/h (1 Bft)
07.04.2015 20:00 10,0 C 18,0 C 8,7 C 9,4 C 8,3 C 0,0 C 56 % 62 % 0 % 1031,7 hPa 0,0 l/m 0,5 km/h (0 Bft) N-NW 337 0 min 0,0 UV-I 1,6 C 8,3 C 3,7 km/h (1 Bft)
07.04.2015 20:05 9,9 C 18,0 C 8,7 C 9,3 C 8,2 C 0,0 C 57 % 63 % 0 % 1031,7 hPa 0,0 l/m 0,8 km/h (0 Bft) NO 45 0 min 0,0 UV-I 1,8 C 8,2 C 0,0 km/h (0 Bft)
07.04.2015 20:10 9,6 C 18,0 C 8,5 C 9,1 C 8,2 C 0,0 C 57 % 63 % 0 % 1031,7 hPa 0,0 l/m 1,1 km/h (1 Bft) N-NW 337 0 min 0,0 UV-I 1,5 C 8,2 C 0,0 km/h (0 Bft)
07.04.2015 20:15 9,6 C 18,0 C 8,3 C 9,1 C 8,0 C 0,0 C 58 % 63 % 0 % 1031,9 hPa 0,0 l/m 0,6 km/h (0 Bft) S 180 0 min 0,0 UV-I 1,8 C 8,0 C 0,0 km/h (0 Bft)
07.04.2015 20:20 9,4 C 18,0 C 8,1 C 8,8 C 7,7 C 0,0 C 58 % 64 % 0 % 1031,9 hPa 0,0 l/m 0,0 km/h (0 Bft) S-SW 202 0 min 0,0 UV-I 1,6 C 7,7 C 0,0 km/h (0 Bft)
07.04.2015 20:25 9,2 C 18,0 C 7,9 C 8,6 C 7,5 C 0,0 C 58 % 64 % 0 % 1031,9 hPa 0,0 l/m 0,3 km/h (0 Bft) SW 225 0 min 0,0 UV-I 1,4 C 7,5 C 2,3 km/h (1 Bft)
07.04.2015 20:30 9,1 C 18,0 C 7,9 C 8,6 C 7,5 C 0,0 C 59 % 65 % 0 % 1031,9 hPa 0,0 l/m 1,0 km/h (0 Bft) SW 225 0 min 0,0 UV-I 1,5 C 7,5 C 3,5 km/h (1 Bft)
07.04.2015 20:35 9,1 C 18,0 C 7,6 C 8,5 C 7,4 C 0,0 C 59 % 65 % 0 % 1032,2 hPa 0,0 l/m 1,0 km/h (0 Bft) S-SO 157 0 min 0,0 UV-I 1,5 C 7,4 C 0,0 km/h (0 Bft)
07.04.2015 20:40 8,9 C 18,0 C 7,5 C 8,3 C 7,2 C 0,0 C 59 % 66 % 0 % 1032,2 hPa 0,0 l/m 0,6 km/h (0 Bft) SO 135 0 min 0,0 UV-I 1,3 C 7,2 C 0,0 km/h (0 Bft)
07.04.2015 20:45 8,8 C 18,0 C 7,5 C 8,3 C 7,2 C 0,0 C 60 % 66 % 0 % 1032,2 hPa 0,0 l/m 0,3 km/h (0 Bft) S-SO 157 0 min 0,0 UV-I 1,5 C 7,2 C 0,0 km/h (0 Bft)
07.04.2015 20:50 8,7 C 18,0 C 7,5 C 8,2 C 7,2 C 0,0 C 60 % 67 % 0 % 1032,2 hPa 0,0 l/m 0,5 km/h (0 Bft) S 180 0 min 0,0 UV-I 1,4 C 7,2 C 0,0 km/h (0 Bft)
07.04.2015 20:55 8,6 C 18,0 C 7,3 C 8,1 C 7,1 C 0,0 C 60 % 67 % 0 % 1032,1 hPa 0,0 l/m 0,3 km/h (0 Bft) W 270 0 min 0,1 UV-I 1,3 C 7,1 C 1,8 km/h (1 Bft)
07.04.2015 21:00 8,5 C 18,0 C 7,2 C 8,0 C 7,0 C 0,0 C 60 % 67 % 0 % 1032,1 hPa 0,0 l/m 0,2 km/h (0 Bft) W 270 0 min 0,1 UV-I 1,2 C 7,0 C 0,0 km/h (0 Bft)
07.04.2015 21:05 8,4 C 18,0 C 7,1 C 7,9 C 6,9 C 0,0 C 61 % 67 % 0 % 1032,1 hPa 0,0 l/m 0,2 km/h (0 Bft) W-SW 247 0 min 0,1 UV-I 1,3 C 6,9 C 2,1 km/h (1 Bft)
07.04.2015 21:10 8,3 C 18,0 C 6,9 C 7,7 C 6,6 C 0,0 C 61 % 68 % 0 % 1032,1 hPa 0,0 l/m 0,3 km/h (0 Bft) S 180 0 min 0,0 UV-I 1,2 C 6,6 C 2,4 km/h (1 Bft)
07.04.2015 21:15 8,0 C 18,0 C 6,7 C 7,5 C 6,4 C 0,0 C 62 % 69 % 0 % 1032,1 hPa 0,0 l/m 0,6 km/h (0 Bft) SW 225 0 min 0,0 UV-I 1,2 C 6,4 C 0,0 km/h (0 Bft)
07.04.2015 21:20 7,7 C 18,0 C 6,4 C 7,2 C 6,1 C 0,0 C 63 % 70 % 0 % 1032,1 hPa 0,0 l/m 0,5 km/h (0 Bft) W-SW 247 0 min 0,0 UV-I 1,1 C 6,1 C 0,0 km/h (0 Bft)
07.04.2015 21:25 7,3 C 18,0 C 6,3 C 6,8 C 5,8 C 0,0 C 65 % 70 % 0 % 1032,1 hPa 0,0 l/m 0,2 km/h (0 Bft) SW 225 0 min 0,0 UV-I 1,2 C 5,8 C 0,0 km/h (0 Bft)
07.04.2015 21:30 7,3 C 18,0 C 6,3 C 6,8 C 5,8 C 0,0 C 65 % 71 % 0 % 1032,1 hPa 0,0 l/m 0,2 km/h (0 Bft) S 180 0 min 0,0 UV-I 1,2 C 5,8 C 0,0 km/h (0 Bft)
07.04.2015 21:35 7,1 C 18,0 C 6,3 C 6,7 C 5,8 C 0,0 C 66 % 72 % 0 % 1032,1 hPa 0,0 l/m 0,0 km/h (0 Bft) SW 225 0 min 0,3 UV-I 1,2 C 5,8 C 0,0 km/h (0 Bft)
07.04.2015 21:42 6,9 C 18,0 C 6,3 C 6,5 C 5,8 C 0,0 C 67 % 72 % 0 % 1032,1 hPa 0,0 l/m 0,0 km/h (0 Bft) N 0 0 min 0,6 UV-I 1,2 C 5,8 C 0,0 km/h (0 Bft)
07.04.2015 21:50 6,7 C 18,0 C 6,0 C 6,4 C 5,7 C 0,0 C 68 % 72 % 0 % 1032,1 hPa 0,0 l/m 0,0 km/h (0 Bft) S 180 0 min 0,6 UV-I 1,2 C 5,7 C 0,0 km/h (0 Bft)
07.04.2015 21:55 6,5 C 18,0 C 5,9 C 6,2 C 5,6 C 0,0 C 68 % 73 % 0 % 1032,4 hPa 0,0 l/m 0,0 km/h (0 Bft) S-SO 157 0 min 0,4 UV-I 1,0 C 5,6 C 0,0 km/h (0 Bft)
07.04.2015 22:00 6,5 C 18,0 C 6,1 C 6,2 C 5,6 C 0,0 C 69 % 73 % 0 % 1032,4 hPa 0,0 l/m 0,3 km/h (0 Bft) W-SW 247 0 min 0,4 UV-I 1,2 C 5,6 C 0,0 km/h (0 Bft)
07.04.2015 22:05 6,4 C 18,0 C 5,9 C 6,1 C 5,6 C 0,0 C 69 % 73 % 0 % 1032,4 hPa 0,0 l/m 0,3 km/h (0 Bft) SW 225 0 min 0,8 UV-I 1,1 C 5,6 C 0,0 km/h (0 Bft)
07.04.2015 22:10 6,5 C 18,0 C 5,9 C 6,2 C 5,6 C 0,0 C 70 % 73 % 0 % 1032,4 hPa 0,0 l/m 0,0 km/h (0 Bft) W-SW 247 0 min 0,7 UV-I 1,4 C 5,6 C 0,0 km/h (0 Bft)
07.04.2015 22:15 6,4 C 18,0 C 5,8 C 6,1 C 5,5 C 0,0 C 70 % 74 % 0 % 1032,4 hPa 0,0 l/m 0,0 km/h (0 Bft) W-NW 292 0 min 0,6 UV-I 1,3 C 5,5 C 0,0 km/h (0 Bft)
07.04.2015 22:20 6,3 C 18,0 C 5,8 C 6,1 C 5,6 C 0,0 C 70 % 74 % 0 % 1032,4 hPa 0,0 l/m 0,0 km/h (0 Bft) S 180 0 min 0,7 UV-I 1,2 C 5,6 C 0,0 km/h (0 Bft)
07.04.2015 22:25 6,3 C 18,0 C 5,9 C 6,1 C 5,7 C 0,0 C 70 % 74 % 0 % 1032,4 hPa 0,0 l/m 0,0 km/h (0 Bft) SW 225 0 min 1,0 UV-I 1,2 C 5,7 C 0,0 km/h (0 Bft)
07.04.2015 22:30 6,3 C 18,0 C 5,7 C 6,1 C 5,7 C 0,0 C 70 % 74 % 0 % 1032,4 hPa 0,0 l/m 0,0 km/h (0 Bft) SW 225 0 min 1,2 UV-I 1,2 C 5,7 C 0,0 km/h (0 Bft)
07.04.2015 22:35 6,1 C 18,0 C 5,7 C 5,9 C 5,6 C 0,0 C 71 % 74 % 0 % 1032,4 hPa 0,0 l/m 0,0 km/h (0 Bft) SW 225 0 min 1,0 UV-I 1,2 C 5,6 C 0,0 km/h (0 Bft)
07.04.2015 22:40 6,1 C 18,0 C 5,6 C 5,9 C 5,5 C 0,0 C 71 % 75 % 0 % 1032,4 hPa 0,0 l/m 0,0 km/h (0 Bft) SW 225 0 min 0,8 UV-I 1,2 C 5,5 C 0,0 km/h (0 Bft)
07.04.2015 22:45 6,0 C 18,0 C 5,6 C 5,9 C 5,6 C 0,0 C 71 % 75 % 0 % 1032,4 hPa 0,0 l/m 0,0 km/h (0 Bft) SW 225 0 min 0,7 UV-I 1,1 C 5,6 C 0,0 km/h (0 Bft)
07.04.2015 22:50 6,1 C 18,0 C 5,6 C 5,9 C 5,5 C 0,0 C 71 % 75 % 0 % 1032,4 hPa 0,0 l/m 0,0 km/h (0 Bft) S-SO 157 0 min 0,9 UV-I 1,2 C 5,5 C 0,0 km/h (0 Bft)
07.04.2015 22:55 6,0 C 18,0 C 5,6 C 5,9 C 5,6 C 0,0 C 72 % 76 % 0 % 1032,2 hPa 0,0 l/m 0,0 km/h (0 Bft) O-NO 67 0 min 1,1 UV-I 1,3 C 5,6 C 0,0 km/h (0 Bft)
07.04.2015 23:00 6,0 C 18,0 C 5,7 C 5,9 C 5,7 C 0,0 C 72 % 76 % 0 % 1032,2 hPa 0,0 l/m 0,0 km/h (0 Bft) S-SO 157 0 min 1,4 UV-I 1,3 C 5,7 C 0,0 km/h (0 Bft)
07.04.2015 23:05 6,1 C 18,0 C 5,7 C 6,0 C 5,9 C 0,0 C 72 % 76 % 0 % 1032,2 hPa 0,0 l/m 0,0 km/h (0 Bft) S 180 0 min 1,8 UV-I 1,4 C 5,9 C 0,0 km/h (0 Bft)
07.04.2015 23:10 6,0 C 18,0 C 5,8 C 6,2 C 6,2 C 0,2 C 72 % 76 % 0 % 1032,2 hPa 0,0 l/m 0,0 km/h (0 Bft) S 180 0 min 2,1 UV-I 1,3 C 6,2 C 0,0 km/h (0 Bft)
07.04.2015 23:15 6,2 C 18,0 C 5,9 C 6,3 C 6,3 C 0,1 C 72 % 76 % 0 % 1032,2 hPa 0,0 l/m 0,5 km/h (0 Bft) SW 225 0 min 2,3 UV-I 1,5 C 6,3 C 0,0 km/h (0 Bft)
07.04.2015 23:20 6,3 C 18,0 C 6,0 C 6,4 C 6,4 C 0,1 C 72 % 76 % 0 % 1032,2 hPa 0,0 l/m 0,5 km/h (0 Bft) W-SW 247 0 min 2,5 UV-I 1,6 C 6,4 C 0,0 km/h (0 Bft)
07.04.2015 23:25 6,4 C 18,0 C 6,0 C 6,4 C 6,4 C 0,0 C 72 % 76 % 0 % 1032,2 hPa 0,0 l/m 1,0 km/h (0 Bft) W-SW 247 0 min 2,4 UV-I 1,7 C 6,4 C 1,8 km/h (1 Bft)
07.04.2015 23:30 6,5 C 18,0 C 6,0 C 6,5 C 6,5 C 0,0 C 72 % 76 % 0 % 1032,2 hPa 0,0 l/m 1,1 km/h (1 Bft) W-SW 247 0 min 2,4 UV-I 1,8 C 6,5 C 1,9 km/h (1 Bft)
07.04.2015 23:35 6,7 C 18,0 C 6,2 C 6,7 C 6,7 C 0,0 C 71 % 76 % 0 % 1031,9 hPa 0,0 l/m 1,0 km/h (0 Bft) NW 315 0 min 2,6 UV-I 1,8 C 6,7 C 0,0 km/h (0 Bft)
07.04.2015 23:40 6,7 C 18,0 C 6,3 C 6,7 C 6,7 C 0,0 C 71 % 76 % 0 % 1031,9 hPa 0,0 l/m 0,8 km/h (0 Bft) W-SW 247 0 min 2,7 UV-I 1,8 C 6,7 C 0,0 km/h (0 Bft)
07.04.2015 23:45 6,7 C 18,0 C 6,3 C 6,7 C 6,7 C 0,0 C 71 % 76 % 0 % 1031,9 hPa 0,0 l/m 0,2 km/h (0 Bft) W 270 0 min 2,7 UV-I 1,8 C 6,7 C 0,0 km/h (0 Bft)
07.04.2015 23:50 6,7 C 18,2 C 6,2 C 6,7 C 6,7 C 0,0 C 71 % 76 % 0 % 1031,9 hPa 0,0 l/m 0,3 km/h (0 Bft) W-SW 247 0 min 2,8 UV-I 1,8 C 6,7 C 0,0 km/h (0 Bft)
07.04.2015 23:55 6,8 C 18,2 C 6,3 C 6,8 C 6,8 C 0,0 C 71 % 76 % 0 % 1031,9 hPa 0,0 l/m 0,6 km/h (0 Bft) W 270 0 min 2,8 UV-I 1,9 C 6,8 C 0,0 km/h (0 Bft)
_ Min-Zeit 05:15 09:15 06:15 05:15 05:15 00:00 15:55 14:00 00:00 19:55 - 00:00 - - - 00:00 05:15 05:15 00:00
Minimum _ -4,3 C 15,9 C -3,5 C -4,5 C -4,9 C 0,0 C 43 % 44 % 0 % 1031,7 hPa - 0,0 km/h (0 Bft) - - - 0,0 UV-I -6,4 C -4,9 C 0,0 km/h (0 Bft)
_ Max-Zeit 16:40 23:50 13:45 15:30 15:30 08:40 07:25 07:10 07:25 10:15 00:00 16:00 - - 09:50 08:20 23:55 15:30 11:40
Maximum _ 12,7 C 18,2 C 16,0 C 17,0 C 17,0 C 9,8 C 89 % 89 % 100 % 1036,6 hPa 0,0 l/m 10,3 km/h
W-SW (2 Bft)
- - 8 min 3,0 UV-I 1,9 C 17,0 C 22,9 km/h
W-SW (4 Bft)
Durchschnitt _ 4,5 C 17,1 C 5,6 C 6,4 C 6,1 C 2,1 C 68 % 70 % 42 % 1034,3 hPa #0,0 l/m 3,0 km/h (1 Bft) W-SW - #7:55 h 1,1 UV-I -1,3 C 6,0 C 4,0 km/h (1 Bft)
2015 www.wetterstation-wechselburg.de